[[{"header":{"parameterUnit":"m.s-1","parameterCategory":2,"la1":30.2991,"la2":30.254,"lo1":-89.0895,"lo2":-89.0444,"dy":0.0017,"dx":0.0017,"nx":28,"ny":28,"refTime":"2025-07-12T21:00:00:Z","depth":"0","parameterNumber":2,"parameterNumberName":"U-component_of_CURRENTS"},"data":[0,0,0,0,0,0,0,0,0,0,0,0,0,0,0,0,0,0,0,0,0,0,0,0,0,0,0,0,0,0,0,0,0,0,0,0,0,0,0,0,0,0,0,0,0,0,0,0,0,0,0,0,0,0,0,0,0,0,0.3182,0.3182,0,0.3189,0.3189,0.3188,0.3159,0.3158,0.3158,0.3157,0.3243,0.3246,0.3249,0,0,0,0,0,0,0,0,0,0,0,0,0,0.3233,0.3231,0.3182,0.3183,0.3183,0.3189,0.3189,0.3188,0.3159,0.3158,0.3158,0.3157,0.3242,0.3246,0.3249,0,0,0,0,0,0,0,0,0,0,0,0,0,0.3219,0.3231,0.3182,0.3171,0.317,0.3189,0.3189,0.3188,0.3159,0.3158,0.3157,0.3157,0.3241,0.3245,0.3249,0.3293,0,0,0.3262,0.3264,0,0,0,0,0,0,0,0,0.322,0.3217,0.3172,0.3172,0.3171,0.3175,0.3238,0.3228,0.3159,0.316,0.3157,0.3156,0.323,0.3235,0.3233,0.3297,0.3301,0.3263,0.3265,0.3267,0.3268,0,0,0,0,0,0,0,0.3221,0.3217,0.3182,0.3173,0.3172,0.3197,0.3193,0.3236,0.3199,0.316,0.3159,0.3165,0.323,0.3229,0.3235,0.3302,0.3263,0.3266,0.3269,0.3271,0.3519,0.3523,0,0,0,0,0,0,0.3222,0.3217,0.3181,0.3182,0.3198,0.3196,0.3192,0.3172,0.3197,0.32,0.3165,0.3163,0.3222,0.323,0.3238,0.3452,0.3267,0.3271,0.3273,0.3515,0.352,0.3524,0,0,0,0,0,0,0.3223,0.3218,0.3181,0.3204,0.3202,0.3196,0.3175,0.3173,0.3173,0.3201,0.3204,0.3168,0.3222,0.3232,0.3313,0.3449,0.3273,0.3277,0.351,0.3516,0.3522,0.3777,0,0,0,0,0,0,0.3224,0.3217,0.3212,0.3203,0.32,0.3233,0.3176,0.3174,0.318,0.3177,0.3205,0.3211,0.3222,0.3307,0.3317,0.3451,0.328,0.3505,0.3513,0.352,0.3763,0.3791,0.3814,0,0,0,0,0,0.3225,0.3227,0.3211,0.3208,0.3189,0.3236,0.3239,0.3229,0.3181,0.3217,0.323,0.3211,0.3362,0.3313,0.3324,0.3463,0.3501,0.3511,0.352,0.3752,0.3785,0.3814,0,0,0,0,0,0,0.3245,0.3224,0.3206,0.3199,0.3234,0.3233,0.3256,0.3234,0.3265,0.3255,0.3255,0.3267,0.3405,0.3374,0.3319,0.3551,0.3432,0.3444,0.3605,0.3636,0.3661,0.3686,0.3284,0,0,0,0,0,0.3247,0.3243,0.3246,0.3249,0.3262,0.3254,0.3266,0.3264,0.3284,0.3292,0.3318,0.3354,0.3451,0.3489,0.3552,0.3659,0.3653,0.3753,0.3779,0.3801,0.3827,0.3966,0.4008,0.3554,0.3554,0.3554,0,0,0.3255,0.3246,0.3242,0.3256,0.3266,0.3355,0.326,0.3294,0.3388,0.3303,0.3428,0.3451,0.3498,0.3651,0.3708,0.3642,0.3918,0.3813,0.3832,0.3846,0.398,0.4024,0.4064,0.356,0.3559,0.3558,0,0,0.3322,0.3265,0.3314,0.336,0.3396,0.341,0.3425,0.3444,0.347,0.3578,0.3573,0.3666,0.3759,0.3854,0.3908,0.4099,0.4058,0.4108,0.4261,0.4398,0.4437,0.4472,0.4486,0.452,0.4112,0.4113,0.4113,0,0.335,0.3399,0.3346,0.3441,0.35,0.345,0.3564,0.3606,0.3658,0.3701,0.3655,0.3847,0.3884,0.4108,0.4185,0.4172,0.4181,0.415,0.4437,0.4471,0.4502,0.4508,0.4543,0.4126,0.4125,0.4123,0.4122,0,0.3481,0.3543,0.3582,0.3687,0.3742,0.3823,0.3878,0.3927,0.3929,0.3971,0.4141,0.4192,0.4296,0.4349,0.4337,0.4589,0.4499,0.4465,0.4367,0.4564,0.4555,0.4587,0.4145,0.4141,0.4137,0.4133,0,0,0.3504,0.365,0.3672,0.3767,0.3875,0.3934,0.4084,0.4206,0.4278,0.4363,0.4494,0.4687,0.4649,0.4706,0.471,0.483,0.5057,0.4746,0.4747,0.4773,0.5281,0.5037,0.5045,0.508,0.5088,0.5094,0.5173,0,0.3644,0.3864,0.3894,0.4117,0.4237,0.425,0.4386,0.4478,0.4525,0.4632,0.4715,0.4843,0.4809,0.485,0.499,0.504,0.5156,0.5032,0.5073,0.5072,0.4847,0.5082,0.4718,0.4744,0.5202,0.5207,0.5211,0,0.3776,0.3912,0.4142,0.4325,0.4368,0.4475,0.4615,0.473,0.4854,0.4885,0.501,0.5035,0.5245,0.5157,0.5397,0.5314,0.5333,0.5354,0.5357,0.5067,0.4891,0.4627,0.4782,0.4623,0.5258,0.5254,0.5251,0,0.3835,0.4078,0.4258,0.4335,0.4532,0.4599,0.4677,0.4792,0.4864,0.5027,0.5077,0.5291,0.5366,0.5507,0.5542,0.5495,0.574,0.567,0.5468,0.5445,0.511,0.5044,0.5129,0.5866,0.5866,0.5866,0.5865,0,0.3978,0.4125,0.4284,0.4395,0.4559,0.4652,0.4782,0.487,0.4975,0.5077,0.5192,0.5295,0.5466,0.5589,0.5631,0.5636,0.5823,0.5545,0.5497,0.5176,0.5119,0.4936,0.4912,0.5868,0.5868,0.5867,0.5867,0,0.4038,0.4153,0.4356,0.4549,0.4593,0.4694,0.4806,0.4891,0.4982,0.5113,0.5174,0.5339,0.5478,0.5588,0.5768,0.5692,0.5567,0.5701,0.5244,0.5142,0.4732,0.4734,0.4657,0.4552,0.5488,0.5483,0.5479,0,0.4108,0.4222,0.4423,0.4503,0.4583,0.4709,0.478,0.4882,0.4951,0.5127,0.5195,0.5347,0.5406,0.5524,0.5448,0.5449,0.5393,0.5098,0.4967,0.4709,0.4682,0.4586,0.45,0.4607,0.4596,0.4587,0.458,0,0.4249,0.4283,0.4433,0.4562,0.4651,0.4742,0.4837,0.4871,0.4988,0.5061,0.5154,0.5204,0.5225,0.5021,0.4967,0.4937,0.4799,0.4907,0.4819,0.4165,0.3897,0.3765,0.4488,0.45,0.4508,0.4514,0.4518,0.4522,0.4318,0.4394,0.4524,0.4618,0.4708,0.4725,0.4706,0.4775,0.4805,0.4768,0.4962,0.4834,0.4661,0.4483,0.4447,0.4041,0.4227,0.3838,0.3907,0.3869,0.3641,0.4129,0.3977,0.3982,0.3986,0.399,0.3993,0,0.4391,0.4452,0.4567,0.4632,0.4642,0.4686,0.4703,0.4586,0.4507,0.448,0.4439,0.4102,0.3806,0.3659,0.3262,0.3068,0.2995,0.2991,0.2813,0.2822,0.3382,0.3211,0.2668,0.2668,0.2668,0.2668,0.2668,0.2669,0.445,0.4525,0.4526,0.4517,0.4525,0.4381,0.4315,0.4155,0.4045,0.3675,0.3379,0.3298,0.3159,0.283,0.2482,0.2416,0.2337,0.2126,0.234,0.2728,0.2813,0.2894,0.2728,0.2093,0.2093,0.1553,0.1549,0.1546]},{"header":{"parameterUnit":"m.s-1","parameterCategory":2,"la1":30.2991,"la2":30.254,"lo1":-89.0895,"lo2":-89.0444,"dy":0.0017,"dx":0.0017,"nx":28,"ny":28,"refTime":"2025-07-12T21:00:00:Z","depth":"0","parameterNumber":3,"parameterNumberName":"V-component_of_CURRENTS"},"data":[0,0,0,0,0,0,0,0,0,0,0,0,0,0,0,0,0,0,0,0,0,0,0,0,0,0,0,0,0,0,0,0,0,0,0,0,0,0,0,0,0,0,0,0,0,0,0,0,0,0,0,0,0,0,0,0,0,0,0.0087,0.0087,0,0.0067,0.0066,0.0066,0.0038,0.0038,0.0037,0.0037,0.0047,0.0048,0.0049,0,0,0,0,0,0,0,0,0,0,0,0,0,0.0117,0.0117,0.0087,0.0087,0.0086,0.0067,0.0066,0.0066,0.0038,0.0038,0.0037,0.0036,0.0047,0.0048,0.0049,0,0,0,0,0,0,0,0,0,0,0,0,0,0.0103,0.0117,0.0087,0.0069,0.0067,0.0067,0.0066,0.0066,0.0039,0.0038,0.0037,0.0036,0.0047,0.0048,0.0049,0.0075,0,0,0.0053,0.0054,0,0,0,0,0,0,0,0,0.0103,0.0102,0.0072,0.007,0.0068,0.0053,0.0081,0.007,0.0039,0.0051,0.0037,0.0035,0.0052,0.0052,0.0052,0.0076,0.0076,0.0053,0.0054,0.0054,0.0055,0,0,0,0,0,0,0,0.0104,0.0102,0.008,0.0072,0.0069,0.0067,0.0064,0.0079,0.0058,0.005,0.0047,0.0043,0.0051,0.0051,0.0052,0.0076,0.0053,0.0054,0.0055,0.0055,0.0131,0.0132,0,0,0,0,0,0,0.0104,0.0103,0.0081,0.008,0.0082,0.0067,0.0064,0.006,0.0057,0.0056,0.0044,0.0042,0.0049,0.0051,0.0053,0.0091,0.0054,0.0056,0.0056,0.013,0.0131,0.0133,0,0,0,0,0,0,0.0105,0.0102,0.0082,0.009,0.0087,0.0067,0.0063,0.006,0.0058,0.0052,0.0051,0.0045,0.0049,0.0051,0.0062,0.0091,0.0056,0.0057,0.0128,0.013,0.0132,0.0163,0,0,0,0,0,0,0.0106,0.0103,0.0105,0.009,0.0086,0.0078,0.0064,0.006,0.0056,0.0053,0.0053,0.0053,0.0048,0.0061,0.0064,0.0092,0.0058,0.0127,0.0129,0.0131,0.016,0.0165,0.017,0,0,0,0,0,0.0107,0.0114,0.0106,0.0103,0.0089,0.0078,0.0076,0.006,0.0057,0.0056,0.0056,0.0053,0.0078,0.0062,0.0066,0.0095,0.0126,0.0128,0.0131,0.0158,0.0164,0.017,0,0,0,0,0,0,0.0127,0.0111,0.0102,0.0103,0.0089,0.0073,0.0074,0.0066,0.0066,0.0066,0.0062,0.0063,0.0082,0.0087,0.007,0.0125,0.0105,0.0108,0.0124,0.013,0.0135,0.0196,0.0059,0,0,0,0,0,0.0133,0.0134,0.0114,0.0115,0.011,0.0095,0.0091,0.0079,0.0074,0.0073,0.0071,0.0081,0.0099,0.0111,0.0117,0.015,0.0187,0.0174,0.0179,0.0183,0.0237,0.0344,0.0364,0.0142,0.0142,0.0142,0,0,0.014,0.0132,0.0132,0.0119,0.011,0.0105,0.0091,0.0085,0.0092,0.0077,0.009,0.0092,0.0109,0.0136,0.0148,0.0144,0.0246,0.0186,0.019,0.0243,0.0349,0.0371,0.0391,0.0144,0.0143,0.0143,0,0,0.0146,0.0148,0.0144,0.0136,0.0121,0.0118,0.0117,0.0101,0.0107,0.0113,0.0114,0.0149,0.0146,0.0189,0.0206,0.0252,0.0262,0.0235,0.0321,0.0423,0.0443,0.0462,0.0455,0.0473,0.0247,0.0247,0.0247,0,0.0152,0.0148,0.0142,0.0134,0.0141,0.0125,0.0129,0.0132,0.0123,0.0167,0.0117,0.0199,0.0188,0.0291,0.0291,0.0269,0.0292,0.0291,0.0433,0.0452,0.0471,0.0461,0.048,0.0249,0.0249,0.0249,0.0248,0,0.0151,0.0148,0.0149,0.0141,0.0149,0.0151,0.0155,0.0176,0.018,0.0201,0.0284,0.0284,0.0357,0.0339,0.032,0.0456,0.041,0.0417,0.0421,0.0496,0.0478,0.0498,0.0252,0.0251,0.025,0.025,0,0,0.0169,0.0151,0.0152,0.0168,0.016,0.018,0.0209,0.0267,0.0346,0.0336,0.0459,0.0467,0.0503,0.053,0.0528,0.0603,0.0693,0.0566,0.057,0.0564,0.0849,0.075,0.0761,0.0728,0.0734,0.0739,0.0753,0,0.0172,0.0171,0.0166,0.0196,0.0208,0.0232,0.0283,0.0341,0.0391,0.0502,0.0558,0.0645,0.0566,0.0617,0.0683,0.072,0.0762,0.0684,0.0777,0.0778,0.0689,0.0789,0.0756,0.0765,0.0773,0.0776,0.0778,0,0.0173,0.0186,0.02,0.0268,0.0283,0.0307,0.0447,0.0488,0.0633,0.0682,0.0794,0.0835,0.0955,0.0872,0.0983,0.0937,0.0903,0.0899,0.09,0.0835,0.0722,0.071,0.0801,0.0712,0.0809,0.0807,0.0804,0,0.0209,0.0223,0.0251,0.026,0.0319,0.0375,0.0432,0.0558,0.0659,0.0823,0.0931,0.1049,0.1142,0.1164,0.1118,0.1076,0.1218,0.116,0.1025,0.1011,0.1023,0.1003,0.1063,0.1248,0.1248,0.1248,0.1248,0,0.0222,0.0253,0.0275,0.0295,0.0408,0.0429,0.0585,0.066,0.0821,0.0996,0.1043,0.1207,0.1233,0.1298,0.1218,0.1185,0.1294,0.1081,0.1054,0.1016,0.0997,0.0949,0.0877,0.1248,0.1248,0.1248,0.1248,0,0.0251,0.0239,0.0304,0.0378,0.0415,0.0507,0.0669,0.0806,0.0914,0.115,0.1216,0.1374,0.1452,0.1409,0.1447,0.1319,0.122,0.1224,0.1115,0.1076,0.0844,0.0774,0.0816,0.0795,0.1102,0.1101,0.1099,0,0.026,0.0281,0.0378,0.0458,0.0495,0.0624,0.0744,0.0852,0.1005,0.126,0.1405,0.1533,0.1666,0.1631,0.1448,0.1294,0.1192,0.1109,0.104,0.0871,0.0775,0.0726,0.0703,0.102,0.1019,0.1017,0.1016,0,0.0325,0.0352,0.0427,0.0573,0.0693,0.0832,0.0994,0.111,0.1279,0.1473,0.1723,0.1839,0.1789,0.1665,0.1404,0.1276,0.1034,0.1066,0.0992,0.0817,0.0683,0.0633,0.088,0.1002,0.1003,0.1004,0.1005,0.1005,0.0411,0.0487,0.059,0.0734,0.0871,0.1033,0.1153,0.1347,0.1575,0.1849,0.193,0.2119,0.1844,0.1518,0.1325,0.0904,0.0935,0.0771,0.0719,0.07,0.0649,0.0801,0.0831,0.0831,0.0831,0.0832,0.0832,0,0.0534,0.0616,0.0758,0.0923,0.1071,0.1112,0.1333,0.147,0.1735,0.1983,0.2182,0.2127,0.181,0.1443,0.0858,0.0609,0.0554,0.0485,0.0453,0.0464,0.0699,0.0664,0.0543,0.0543,0.0543,0.0544,0.0544,0.0544,0.0619,0.0763,0.0819,0.1061,0.1171,0.135,0.1457,0.168,0.1881,0.2139,0.2234,0.2288,0.1963,0.1022,0.0462,0.0354,0.0252,0.017,0.0158,0.0323,0.0348,0.0371,0.0326,0.0136,0.0136,-0.0034,-0.0036,-0.0038]}],[{"header":{"parameterUnit":"m.s-1","parameterCategory":2,"la1":30.2991,"la2":30.254,"lo1":-89.0895,"lo2":-89.0444,"dy":0.0017,"dx":0.0017,"nx":28,"ny":28,"refTime":"2025-07-12T21:00:00:Z","depth":"2","parameterNumber":2,"parameterNumberName":"U-component_of_CURRENTS"},"data":[0,0,0,0,0,0,0,0,0,0,0,0,0,0,0,0,0,0,0,0,0,0,0,0,0,0,0,0,0,0,0,0,0,0,0,0,0,0,0,0,0,0,0,0,0,0,0,0,0,0,0,0,0,0,0,0,0,0,0.2435,0.2436,0,0.2478,0.2478,0.2479,0.2489,0.2489,0.249,0.249,0.2557,0.2559,0.2561,0,0,0,0,0,0,0,0,0,0,0,0,0,0.2422,0.2421,0.2435,0.2436,0.2437,0.2478,0.2478,0.2479,0.2489,0.2489,0.249,0.249,0.2557,0.2559,0.2561,0,0,0,0,0,0,0,0,0,0,0,0,0,0.2438,0.2421,0.2435,0.2451,0.2453,0.2478,0.2479,0.2479,0.2489,0.2489,0.249,0.249,0.2556,0.2559,0.2561,0.2572,0,0,0.2569,0.257,0,0,0,0,0,0,0,0,0.2437,0.2438,0.2448,0.245,0.2452,0.2483,0.2499,0.2513,0.2489,0.2471,0.249,0.249,0.2538,0.2542,0.2542,0.2575,0.2578,0.2569,0.257,0.2571,0.2572,0,0,0,0,0,0,0,0.2436,0.2436,0.2447,0.2449,0.2452,0.2477,0.2478,0.2501,0.2499,0.2472,0.2474,0.2487,0.2538,0.254,0.2544,0.2579,0.2569,0.2571,0.2572,0.2573,0.2688,0.269,0,0,0,0,0,0,0.2436,0.2435,0.2446,0.2449,0.2451,0.2477,0.2478,0.2469,0.2498,0.2504,0.2486,0.2487,0.2535,0.2541,0.2546,0.2686,0.2571,0.2574,0.2575,0.2686,0.2688,0.269,0,0,0,0,0,0,0.2435,0.2436,0.2445,0.2448,0.2452,0.2477,0.2466,0.247,0.2482,0.251,0.2515,0.2497,0.2536,0.2543,0.2575,0.2684,0.2575,0.2577,0.2685,0.2687,0.2689,0.2885,0,0,0,0,0,0,0.2434,0.2435,0.2436,0.2447,0.2452,0.2468,0.2467,0.2471,0.2491,0.2492,0.252,0.2526,0.2536,0.2571,0.2577,0.2685,0.2579,0.2683,0.2686,0.2688,0.2877,0.2894,0.2908,0,0,0,0,0,0.2433,0.2441,0.2435,0.2438,0.2449,0.2469,0.2473,0.2489,0.2491,0.2499,0.2517,0.2526,0.2595,0.2574,0.2581,0.2693,0.2681,0.2685,0.2688,0.2869,0.289,0.2908,0,0,0,0,0,0,0.2443,0.2443,0.2438,0.2445,0.2458,0.2473,0.2494,0.2495,0.2513,0.2531,0.2534,0.2542,0.2654,0.26,0.2576,0.2725,0.2645,0.265,0.278,0.28,0.2815,0.2861,0.2581,0,0,0,0,0,0.2443,0.2448,0.2449,0.2462,0.2466,0.2477,0.2491,0.2508,0.2526,0.2534,0.255,0.258,0.267,0.2669,0.2735,0.2765,0.2791,0.2838,0.2854,0.2868,0.2905,0.3112,0.3153,0.2702,0.2702,0.2701,0,0,0.2454,0.2457,0.2461,0.2465,0.2477,0.2518,0.2485,0.2524,0.2579,0.2542,0.2611,0.2669,0.2703,0.28,0.2836,0.2758,0.2979,0.2873,0.2886,0.2915,0.3121,0.3166,0.3206,0.2704,0.2704,0.2703,0,0,0.2514,0.2476,0.2518,0.2522,0.2555,0.2562,0.2573,0.2593,0.2618,0.268,0.2722,0.2821,0.2856,0.2941,0.2984,0.3102,0.3108,0.3102,0.3176,0.3377,0.3419,0.3456,0.3431,0.3465,0.3052,0.3052,0.3053,0,0.2536,0.2554,0.2536,0.2582,0.2593,0.2584,0.2636,0.2671,0.2706,0.2746,0.2725,0.2914,0.2956,0.3127,0.3183,0.316,0.3185,0.3114,0.341,0.3447,0.3483,0.3449,0.3485,0.3062,0.3061,0.306,0.3059,0,0.2609,0.2636,0.2656,0.2701,0.2729,0.275,0.2794,0.2835,0.2861,0.2902,0.3068,0.3134,0.3233,0.3281,0.3279,0.3533,0.3436,0.3466,0.3383,0.3542,0.3491,0.3525,0.3076,0.3073,0.307,0.3067,0,0,0.262,0.2689,0.2698,0.2734,0.2771,0.2805,0.2907,0.298,0.3056,0.3134,0.3259,0.3444,0.3472,0.3521,0.3549,0.3699,0.395,0.3674,0.368,0.3683,0.4249,0.3971,0.3978,0.4059,0.4068,0.4076,0.4073,0,0.2669,0.2755,0.2788,0.2885,0.2915,0.2944,0.3031,0.3123,0.3183,0.3299,0.3427,0.3572,0.356,0.3634,0.3803,0.395,0.4065,0.3937,0.4063,0.4063,0.3835,0.4022,0.3656,0.3611,0.4105,0.411,0.4114,0,0.2726,0.2759,0.2848,0.2947,0.2966,0.3048,0.3155,0.3238,0.3402,0.3459,0.3615,0.3696,0.3917,0.3915,0.4213,0.413,0.422,0.4301,0.4304,0.4021,0.3856,0.3552,0.3653,0.4169,0.4165,0.4161,0.4157,0,0.2709,0.2814,0.2872,0.2889,0.3002,0.3084,0.3158,0.3297,0.3375,0.3579,0.3672,0.389,0.4031,0.4239,0.4366,0.4332,0.4674,0.4633,0.4435,0.4404,0.4104,0.4034,0.4912,0.4912,0.4912,0.4912,0.4912,0,0.2708,0.2777,0.2876,0.2894,0.2998,0.3096,0.3229,0.3326,0.3492,0.3617,0.3762,0.3889,0.4161,0.434,0.4439,0.4501,0.4725,0.4491,0.4455,0.4134,0.407,0.458,0.4541,0.4911,0.4911,0.4911,0.4912,0,0.2711,0.2761,0.284,0.2945,0.3,0.3082,0.3256,0.335,0.3496,0.3679,0.3761,0.3963,0.4113,0.4276,0.4571,0.4548,0.4667,0.4642,0.4119,0.4023,0.4204,0.4175,0.4377,0.4369,0.4362,0.4356,0.4351,0,0.2724,0.2751,0.2855,0.2911,0.2976,0.3103,0.3198,0.3346,0.3449,0.3693,0.3791,0.3966,0.4018,0.4203,0.4199,0.422,0.4474,0.3946,0.3855,0.4239,0.4185,0.4166,0.4147,0.3466,0.3455,0.3445,0.3437,0,0.2734,0.2771,0.2824,0.2908,0.3015,0.3104,0.3257,0.3321,0.351,0.3618,0.3728,0.3773,0.3812,0.363,0.3653,0.3651,0.3894,0.3738,0.4436,0.364,0.3379,0.3324,0.3337,0.3352,0.336,0.3367,0.3371,0.3375,0.2766,0.2782,0.285,0.2912,0.3035,0.3112,0.3119,0.3235,0.3321,0.3369,0.3501,0.3393,0.3374,0.31,0.3035,0.2987,0.3246,0.3191,0.3224,0.3267,0.3146,0.2887,0.2731,0.2735,0.274,0.2743,0.2747,0,0.2784,0.2805,0.2859,0.2919,0.2972,0.3074,0.3159,0.3069,0.3053,0.3074,0.3014,0.2652,0.2487,0.2503,0.2244,0.2233,0.2263,0.2195,0.2237,0.2321,0.2395,0.2235,0.1576,0.1573,0.157,0.1567,0,0,0.2821,0.2837,0.2801,0.2829,0.2892,0.2881,0.2881,0.2722,0.2654,0.2425,0.2284,0.2314,0.2402,0.1952,0.1877,0.1697,0.2012,0.1622,0.2555,0.2686,0.2758,0.2949,0.279,0,0,0,0,0]},{"header":{"parameterUnit":"m.s-1","parameterCategory":2,"la1":30.2991,"la2":30.254,"lo1":-89.0895,"lo2":-89.0444,"dy":0.0017,"dx":0.0017,"nx":28,"ny":28,"refTime":"2025-07-12T21:00:00:Z","depth":"2","parameterNumber":3,"parameterNumberName":"V-component_of_CURRENTS"},"data":[0,0,0,0,0,0,0,0,0,0,0,0,0,0,0,0,0,0,0,0,0,0,0,0,0,0,0,0,0,0,0,0,0,0,0,0,0,0,0,0,0,0,0,0,0,0,0,0,0,0,0,0,0,0,0,0,0,0,-0.001,-0.001,0,-0.003,-0.003,-0.003,-0.0045,-0.0046,-0.0046,-0.0046,-0.0066,-0.0066,-0.0066,0,0,0,0,0,0,0,0,0,0,0,0,0,0.002,0.0019,-0.001,-0.001,-0.001,-0.003,-0.003,-0.003,-0.0045,-0.0046,-0.0046,-0.0046,-0.0066,-0.0066,-0.0066,0,0,0,0,0,0,0,0,0,0,0,0,0,0.0005,0.0019,-0.001,-0.0021,-0.0022,-0.003,-0.003,-0.003,-0.0045,-0.0046,-0.0046,-0.0046,-0.0065,-0.0066,-0.0066,-0.0062,0,0,-0.0068,-0.0068,0,0,0,0,0,0,0,0,0.0006,0.0004,-0.0019,-0.002,-0.0022,-0.0036,-0.0027,-0.0041,-0.0045,-0.0035,-0.0046,-0.0046,-0.0056,-0.0057,-0.0059,-0.0063,-0.0064,-0.0068,-0.0068,-0.0068,-0.0068,0,0,0,0,0,0,0,0.0007,0.0005,-0.0017,-0.0019,-0.0021,-0.0024,-0.0026,-0.003,-0.0043,-0.0036,-0.0038,-0.0041,-0.0057,-0.0059,-0.006,-0.0064,-0.0068,-0.0068,-0.0068,-0.0069,-0.0077,-0.0077,0,0,0,0,0,0,0.0007,0.0006,-0.0016,-0.0017,-0.001,-0.0024,-0.0027,-0.003,-0.0043,-0.0045,-0.0041,-0.0042,-0.0058,-0.0059,-0.006,-0.0095,-0.0068,-0.0069,-0.0069,-0.0077,-0.0077,-0.0077,0,0,0,0,0,0,0.0008,0.0006,-0.0015,-0.0007,-0.001,-0.0025,-0.0028,-0.0031,-0.0032,-0.0047,-0.0049,-0.004,-0.0058,-0.006,-0.0074,-0.0094,-0.0069,-0.0069,-0.0078,-0.0077,-0.0077,-0.0139,0,0,0,0,0,0,0.0009,0.0006,0.0007,-0.0007,-0.0011,-0.0019,-0.0028,-0.0031,-0.0035,-0.0036,-0.0047,-0.0049,-0.0058,-0.0073,-0.0074,-0.0094,-0.007,-0.0078,-0.0078,-0.0077,-0.0137,-0.0141,-0.0144,0,0,0,0,0,0.001,0.0011,0.0007,0.0004,-0.001,-0.0019,-0.0021,-0.0032,-0.0034,-0.0034,-0.0049,-0.0049,-0.0073,-0.0074,-0.0075,-0.0096,-0.0078,-0.0078,-0.0077,-0.0135,-0.014,-0.0144,0,0,0,0,0,0,0.0022,0.0009,0.0004,0.0001,-0.0008,-0.0022,-0.0022,-0.0028,-0.0039,-0.0041,-0.0054,-0.0057,-0.008,-0.0068,-0.0069,-0.0093,-0.0072,-0.0073,-0.0116,-0.012,-0.0124,-0.0075,-0.007,0,0,0,0,0,0.0025,0.0024,0.001,0.0007,0.0005,-0.0007,-0.001,-0.0018,-0.0031,-0.0035,-0.005,-0.006,-0.0079,-0.0084,-0.0095,-0.0105,-0.0041,-0.0114,-0.0118,-0.0121,-0.0079,0.0043,0.0055,-0.0077,-0.0077,-0.0077,0,0,0.0027,0.0021,0.0019,0.001,0.0004,-0.0009,-0.0009,-0.0014,-0.003,-0.0036,-0.006,-0.0077,-0.0085,-0.011,-0.0117,-0.0103,-0.007,-0.0121,-0.0124,-0.0079,0.0044,0.0058,0.0069,-0.0077,-0.0077,-0.0077,0,0,0.0023,0.0027,0.002,0.0013,0.0004,-0.0003,-0.0004,-0.002,-0.0029,-0.0057,-0.007,-0.0082,-0.0116,-0.0119,-0.0128,-0.0145,-0.0097,-0.0163,-0.0141,-0.0025,-0.0012,0.0,0.0014,0.0029,-0.016,-0.016,-0.016,0,0.0023,0.002,0.0017,0.0005,0.0012,-0.0002,-0.0002,-0.0025,-0.0048,-0.0038,-0.007,-0.0089,-0.0114,-0.0114,-0.0139,-0.0153,-0.01,-0.0135,-0.0027,-0.0013,0.0001,0.0014,0.0031,-0.0163,-0.0162,-0.0162,-0.0162,0,0.0016,0.0008,0.0007,-0.0009,-0.0006,-0.0004,-0.0026,-0.003,-0.0046,-0.006,-0.0065,-0.0099,-0.0095,-0.0127,-0.0151,-0.0083,-0.0089,-0.0052,-0.0014,0.0011,0.0021,0.0039,-0.0167,-0.0166,-0.0165,-0.0164,0,0,0.0034,0.0008,0.0008,0.0023,0.0,0.0018,-0.0009,-0.0002,0.0026,-0.0035,0.0007,-0.0071,-0.0069,-0.0073,-0.01,-0.0019,0.0059,0.0003,0.001,0.0019,0.0261,0.0176,0.0187,0.0131,0.0136,0.014,0.0197,0,0.0036,0.0031,0.0016,0.003,0.0042,0.0039,0.0038,0.0038,0.0031,0.0057,0.0024,0.0035,-0.0059,-0.0045,0.0004,0.0069,0.0122,0.0037,0.0237,0.0241,0.0168,0.0213,0.018,0.0226,0.0216,0.0219,0.0222,0,0.0035,0.0049,0.0055,0.0101,0.0112,0.0106,0.0173,0.0163,0.0172,0.0172,0.0159,0.015,0.0171,0.0135,0.023,0.0186,0.0221,0.0266,0.0271,0.0248,0.0197,0.0218,0.0261,0.0254,0.0251,0.0249,0.0247,0,0.0078,0.0087,0.0112,0.0117,0.0143,0.0163,0.0178,0.0196,0.0242,0.0249,0.0321,0.0296,0.0359,0.0386,0.0385,0.0347,0.054,0.0501,0.0442,0.0431,0.0475,0.0462,0.063,0.063,0.063,0.063,0.063,0,0.0091,0.0112,0.0135,0.0146,0.0238,0.0217,0.0297,0.0307,0.035,0.0474,0.0382,0.0512,0.0461,0.053,0.0473,0.0495,0.0596,0.047,0.0475,0.0437,0.042,0.0523,0.051,0.0632,0.0631,0.0631,0.0631,0,0.0096,0.0094,0.016,0.0218,0.0242,0.0304,0.038,0.0463,0.047,0.0639,0.0665,0.0728,0.0793,0.0697,0.0779,0.0656,0.0657,0.0649,0.0536,0.0527,0.0429,0.0412,0.0572,0.057,0.0568,0.0567,0.0566,0,0.0088,0.0107,0.0227,0.0316,0.0334,0.041,0.0495,0.0509,0.0614,0.0815,0.0944,0.1032,0.1114,0.1061,0.0861,0.0689,0.071,0.0578,0.0496,0.0451,0.044,0.0425,0.041,0.0491,0.0489,0.0488,0.0487,0,0.0114,0.0156,0.0238,0.0421,0.0531,0.0658,0.0763,0.0859,0.0959,0.1131,0.1381,0.1453,0.1335,0.1147,0.085,0.0733,0.0564,0.0543,0.0641,0.0488,0.0376,0.0363,0.0352,0.0476,0.0477,0.0478,0.0478,0.0479,0.0172,0.0261,0.0398,0.0586,0.0718,0.0901,0.1011,0.1177,0.1386,0.1604,0.166,0.172,0.1455,0.1023,0.0786,0.0492,0.052,0.042,0.0425,0.0432,0.0391,0.0281,0.0349,0.0349,0.0349,0.035,0.035,0,0.0287,0.0391,0.0568,0.0794,0.0961,0.0999,0.1215,0.1344,0.1628,0.1755,0.1887,0.1616,0.1366,0.1044,0.0578,0.0332,0.0312,0.0267,0.0297,0.0309,0.032,0.0274,0.0201,0.02,0.0199,0.0198,0,0,0.0365,0.0554,0.0662,0.0976,0.1109,0.1302,0.1423,0.1639,0.1743,0.1873,0.184,0.1751,0.1396,0.1041,0.0699,0.0446,0.0437,0.0393,0.0534,0.062,0.0634,0.0422,0.0366,0,0,0,0,0]}],[{"header":{"parameterUnit":"m.s-1","parameterCategory":2,"la1":30.2991,"la2":30.254,"lo1":-89.0895,"lo2":-89.0444,"dy":0.0017,"dx":0.0017,"nx":28,"ny":28,"refTime":"2025-07-12T21:00:00:Z","depth":"4","parameterNumber":2,"parameterNumberName":"U-component_of_CURRENTS"},"data":[0,0,0,0,0,0,0,0,0,0,0,0,0,0,0,0,0,0,0,0,0,0,0,0,0,0,0,0,0,0,0,0,0,0,0,0,0,0,0,0,0,0,0,0,0,0,0,0,0,0,0,0,0,0,0,0,0,0,0.1223,0.1223,0,0.1224,0.1224,0.1224,0.1224,0.1224,0.1224,0.1224,0.1191,0.119,0.1189,0,0,0,0,0,0,0,0,0,0,0,0,0,0.1219,0.1219,0.1223,0.1223,0.1223,0.1224,0.1224,0.1224,0.1224,0.1224,0.1224,0.1224,0.1191,0.119,0.1189,0,0,0,0,0,0,0,0,0,0,0,0,0,0.1219,0.1219,0.1223,0.1224,0.1225,0.1224,0.1224,0.1224,0.1224,0.1224,0.1224,0.1224,0.1192,0.119,0.1189,0.1176,0,0,0.1184,0.1184,0,0,0,0,0,0,0,0,0.1219,0.1219,0.1224,0.1224,0.1225,0.1225,0.1211,0.1207,0.1224,0.1223,0.1224,0.1224,0.12,0.1198,0.1196,0.1175,0.1173,0.1184,0.1183,0.1183,0.1182,0,0,0,0,0,0,0,0.1219,0.1219,0.1222,0.1224,0.1225,0.1225,0.1225,0.121,0.1209,0.1223,0.1223,0.1225,0.12,0.1198,0.1195,0.1173,0.1184,0.1183,0.1182,0.1181,0.1145,0.1145,0,0,0,0,0,0,0.1222,0.1219,0.1222,0.1222,0.1224,0.1225,0.1225,0.1224,0.121,0.1208,0.1225,0.1226,0.12,0.1197,0.1194,0.119,0.1183,0.1181,0.118,0.1145,0.1145,0.1145,0,0,0,0,0,0,0.1222,0.1222,0.1222,0.1222,0.1222,0.1225,0.1224,0.1224,0.1252,0.1212,0.121,0.1258,0.12,0.1196,0.1191,0.1188,0.1181,0.1179,0.1145,0.1145,0.1145,0.1174,0,0,0,0,0,0,0.1222,0.1222,0.124,0.1222,0.1222,0.1216,0.1224,0.1224,0.1252,0.1253,0.1238,0.1234,0.12,0.1193,0.1189,0.1186,0.1178,0.1145,0.1145,0.1145,0.1173,0.1175,0.1176,0,0,0,0,0,0.1221,0.1225,0.124,0.1242,0.1241,0.1216,0.1216,0.1218,0.1254,0.125,0.1251,0.1236,0.1189,0.1192,0.1188,0.1184,0.1145,0.1145,0.1145,0.1172,0.1174,0.1176,0,0,0,0,0,0,0.1225,0.1225,0.1241,0.1245,0.1236,0.1217,0.1219,0.1243,0.1245,0.1255,0.124,0.1233,0.1227,0.1205,0.121,0.1172,0.1163,0.1162,0.1185,0.1187,0.1189,0.1194,0.1177,0,0,0,0,0,0.1239,0.1246,0.1238,0.1243,0.1239,0.1247,0.1251,0.1252,0.1246,0.125,0.1245,0.1234,0.1218,0.1206,0.1183,0.1168,0.1206,0.1161,0.1163,0.1164,0.1165,0.1304,0.132,0.1144,0.1144,0.1144,0,0,0.1245,0.1245,0.1251,0.1246,0.1242,0.1198,0.1248,0.1246,0.1238,0.1244,0.1241,0.1246,0.1219,0.1194,0.1188,0.1178,0.1216,0.1164,0.1166,0.1165,0.1306,0.1324,0.134,0.1144,0.1144,0.1144,0,0,0.1204,0.1254,0.1222,0.1198,0.119,0.1199,0.1209,0.1207,0.1241,0.1244,0.1246,0.1262,0.1233,0.1212,0.1199,0.1202,0.123,0.1189,0.1192,0.1328,0.1345,0.1361,0.1362,0.1378,0.118,0.1181,0.1181,0,0.1218,0.1159,0.1209,0.114,0.112,0.1196,0.1135,0.1175,0.118,0.1244,0.124,0.1273,0.124,0.1243,0.1216,0.1207,0.1257,0.1188,0.1336,0.1353,0.1368,0.1367,0.1384,0.1182,0.1182,0.1182,0.1181,0,0.111,0.1067,0.1042,0.0991,0.0991,0.0953,0.0998,0.1049,0.113,0.1198,0.1275,0.1257,0.1305,0.1265,0.1225,0.1299,0.1284,0.1337,0.1342,0.1389,0.1382,0.1399,0.1184,0.1183,0.1183,0.1183,0,0,0.1116,0.0994,0.0983,0.0943,0.0907,0.0913,0.0929,0.1007,0.1116,0.1159,0.1285,0.1238,0.1344,0.1333,0.1319,0.1364,0.1465,0.1382,0.1389,0.1397,0.1694,0.1562,0.1568,0.1582,0.1587,0.1591,0.162,0,0.1014,0.0861,0.084,0.075,0.0681,0.0757,0.0799,0.0906,0.1043,0.12,0.1289,0.1393,0.1347,0.1394,0.1452,0.1472,0.1524,0.1445,0.1633,0.1635,0.153,0.1591,0.1606,0.1633,0.1638,0.1641,0.1643,0,0.0885,0.0814,0.0676,0.0663,0.066,0.0661,0.082,0.0871,0.1115,0.1225,0.1383,0.1514,0.1579,0.1571,0.1672,0.164,0.1677,0.1671,0.1677,0.1564,0.154,0.1592,0.1675,0.1672,0.167,0.1668,0.1666,0,0.0841,0.0714,0.0628,0.059,0.0587,0.0636,0.0714,0.0915,0.1048,0.1293,0.1428,0.159,0.1704,0.178,0.1806,0.1782,0.1917,0.1911,0.1811,0.1797,0.1894,0.1878,0.204,0.204,0.204,0.204,0.204,0,0.0703,0.0646,0.0624,0.0572,0.0626,0.0643,0.0787,0.0909,0.1125,0.1301,0.1488,0.1611,0.1788,0.1911,0.1885,0.1887,0.2024,0.181,0.1829,0.1888,0.1872,0.1902,0.1885,0.2041,0.204,0.204,0.204,0,0.0622,0.0563,0.0516,0.0544,0.0582,0.0655,0.0826,0.093,0.1134,0.1354,0.1444,0.1707,0.1827,0.194,0.2053,0.1992,0.1983,0.1966,0.1952,0.1969,0.1729,0.1713,0.1832,0.1828,0.1825,0.1823,0.182,0,0.0528,0.0475,0.0542,0.0562,0.058,0.0681,0.0743,0.0927,0.1033,0.1362,0.1447,0.1708,0.1848,0.1887,0.1973,0.1967,0.1954,0.1924,0.1858,0.1718,0.1724,0.1713,0.1702,0.1815,0.1815,0.1814,0.1813,0,0.0411,0.0478,0.0492,0.0526,0.0579,0.0639,0.0753,0.0841,0.1054,0.125,0.1457,0.1592,0.1747,0.1822,0.1884,0.1853,0.1915,0.189,0.1895,0.1833,0.1699,0.1706,0.1699,0.1802,0.1804,0.1805,0.1805,0,0.0398,0.0438,0.0471,0.0522,0.0565,0.0591,0.0655,0.0762,0.0908,0.1269,0.131,0.1538,0.1738,0.1762,0.1768,0.1785,0.1739,0.1652,0.1669,0.1681,0.1621,0.1427,0.1473,0,0,0,0,0,0.0356,0.0406,0.044,0.0489,0.0509,0.0536,0.0648,0.0704,0.0921,0.1036,0.1201,0.1327,0.1461,0.1544,0.153,0.1643,0.1702,0.1611,0.1599,0.1742,0.1755,0.1698,0,0,0,0,0,0,0.0337,0.0378,0.0434,0.0422,0.044,0.0445,0.0514,0.0635,0.0716,0.0963,0.1038,0.1226,0.1353,0.148,0.151,0.1531,0.1485,0.1739,0.1734,0.1735,0.1747,0.1757,0.1703,0,0,0,0,0]},{"header":{"parameterUnit":"m.s-1","parameterCategory":2,"la1":30.2991,"la2":30.254,"lo1":-89.0895,"lo2":-89.0444,"dy":0.0017,"dx":0.0017,"nx":28,"ny":28,"refTime":"2025-07-12T21:00:00:Z","depth":"4","parameterNumber":3,"parameterNumberName":"V-component_of_CURRENTS"},"data":[0,0,0,0,0,0,0,0,0,0,0,0,0,0,0,0,0,0,0,0,0,0,0,0,0,0,0,0,0,0,0,0,0,0,0,0,0,0,0,0,0,0,0,0,0,0,0,0,0,0,0,0,0,0,0,0,0,0,0.005,0.005,0,0.0049,0.0049,0.0049,0.0052,0.0052,0.0052,0.0052,0.0016,0.0015,0.0014,0,0,0,0,0,0,0,0,0,0,0,0,0,0.0057,0.0057,0.005,0.005,0.005,0.0049,0.0049,0.0049,0.0052,0.0052,0.0052,0.0052,0.0016,0.0015,0.0014,0,0,0,0,0,0,0,0,0,0,0,0,0,0.0056,0.0057,0.005,0.005,0.005,0.0049,0.0049,0.0049,0.0052,0.0052,0.0052,0.0052,0.0017,0.0015,0.0014,0.0005,0,0,0.0009,0.0009,0,0,0,0,0,0,0,0,0.0056,0.0056,0.0051,0.005,0.005,0.0049,0.0038,0.0032,0.0052,0.0052,0.0052,0.0052,0.0023,0.0021,0.0023,0.0003,0.0002,0.0009,0.0008,0.0008,0.0007,0,0,0,0,0,0,0,0.0056,0.0056,0.0051,0.005,0.005,0.0051,0.0051,0.0037,0.0038,0.0052,0.0052,0.005,0.0023,0.0025,0.0022,0.0001,0.0009,0.0008,0.0007,0.0007,0.0007,0.0008,0,0,0,0,0,0,0.0054,0.0056,0.0051,0.005,0.0052,0.0051,0.0051,0.0051,0.0039,0.0037,0.005,0.0051,0.0027,0.0024,0.0021,0.0059,0.0008,0.0007,0.0006,0.0006,0.0007,0.0008,0,0,0,0,0,0,0.0054,0.0053,0.0051,0.0052,0.0052,0.0051,0.005,0.0051,0.0054,0.0038,0.0035,0.0053,0.0027,0.0023,0.0018,0.0056,0.0006,0.0005,0.0005,0.0006,0.0008,0.0104,0,0,0,0,0,0,0.0054,0.0054,0.0054,0.0052,0.0052,0.0065,0.005,0.005,0.0052,0.0052,0.0039,0.0036,0.0027,0.0021,0.0017,0.0053,0.0003,0.0004,0.0006,0.0007,0.01,0.0108,0.0116,0,0,0,0,0,0.0055,0.0059,0.0054,0.0054,0.0052,0.0066,0.0067,0.0066,0.0052,0.0066,0.0051,0.0036,0.0028,0.002,0.0015,0.0052,0.0003,0.0005,0.0007,0.0096,0.0106,0.0115,0,0,0,0,0,0,0.0061,0.0059,0.0054,0.0057,0.0067,0.0067,0.0074,0.0067,0.0066,0.0064,0.0041,0.0038,0.0052,0.0029,0.002,0.0055,0.0016,0.0017,0.0085,0.0094,0.0102,0.0105,0.0002,0,0,0,0,0,0.0061,0.0065,0.0067,0.007,0.0076,0.0073,0.0076,0.0079,0.0076,0.0076,0.0065,0.0054,0.0056,0.0056,0.0051,0.0062,0.0013,0.0082,0.0091,0.0098,0.0096,0.0031,0.0033,0.0014,0.0014,0.0014,0,0,0.0061,0.0062,0.0062,0.0072,0.0076,0.0116,0.0076,0.0091,0.0128,0.0071,0.0106,0.0079,0.0063,0.0087,0.0092,0.0074,0.0084,0.01,0.0107,0.01,0.0033,0.0034,0.0036,0.0016,0.0015,0.0015,0,0,0.0089,0.0069,0.0097,0.0116,0.0133,0.0137,0.0143,0.015,0.0157,0.0179,0.0152,0.0135,0.0144,0.0136,0.0134,0.0174,0.0126,0.0185,0.0232,0.017,0.0171,0.0171,0.0138,0.0134,0.0192,0.0192,0.0192,0,0.0092,0.0132,0.0108,0.0157,0.018,0.0154,0.0208,0.0218,0.0224,0.0222,0.0207,0.0183,0.0169,0.018,0.0209,0.0194,0.0157,0.0202,0.018,0.0179,0.0177,0.0143,0.0137,0.0197,0.0196,0.0196,0.0195,0,0.0161,0.0198,0.0216,0.0272,0.029,0.0328,0.0342,0.0347,0.0337,0.034,0.0332,0.0291,0.0274,0.0274,0.0263,0.0255,0.0235,0.0196,0.0157,0.0185,0.0147,0.014,0.0204,0.0202,0.02,0.0199,0,0,0.0158,0.0248,0.0259,0.0303,0.0356,0.0373,0.0424,0.0451,0.0467,0.0449,0.0451,0.0444,0.0393,0.0384,0.0346,0.0295,0.0268,0.0256,0.025,0.0226,0.0152,0.017,0.0163,0.0225,0.0223,0.0222,0.0141,0,0.0226,0.0336,0.0363,0.046,0.0515,0.051,0.056,0.0573,0.0566,0.056,0.049,0.0491,0.0449,0.0435,0.0379,0.0284,0.0248,0.0295,0.0125,0.0121,0.0134,0.0155,0.0218,0.0135,0.0133,0.0131,0.013,0,0.0297,0.0359,0.0476,0.0552,0.0572,0.0632,0.0661,0.0706,0.0693,0.0667,0.0626,0.0583,0.052,0.0469,0.032,0.0352,0.0276,0.0193,0.0187,0.016,0.0124,0.0092,0.0115,0.0117,0.0118,0.0119,0.012,0,0.0315,0.043,0.052,0.0556,0.0646,0.0683,0.0726,0.0746,0.0784,0.0741,0.0733,0.064,0.0598,0.0462,0.0326,0.0323,0.0142,0.011,0.0056,0.0057,0.0021,0.0021,0.0014,0.0014,0.0014,0.0015,0.0015,0,0.038,0.0448,0.0541,0.0597,0.0693,0.0732,0.0815,0.0825,0.085,0.0878,0.0804,0.0762,0.0594,0.0484,0.0339,0.0178,0.0155,0.0068,0.0033,0.0068,0.0074,0.0016,0.0018,0.0012,0.0012,0.0013,0.0013,0,0.0404,0.0471,0.0572,0.0675,0.0722,0.0789,0.0909,0.0936,0.0959,0.0982,0.0978,0.0871,0.0707,0.0548,0.0321,0.022,0.0043,0.0001,0.0076,0.0045,-0.0001,0.0007,-0.0073,-0.0073,-0.0073,-0.0073,-0.0073,0,0.0435,0.0502,0.063,0.069,0.0755,0.0861,0.0921,0.0986,0.1019,0.1023,0.1013,0.0914,0.081,0.0505,0.0319,0.007,0.0039,-0.0028,-0.0031,0.0015,-0.0012,-0.0004,0.0003,-0.0073,-0.0074,-0.0074,-0.0074,0,0.0485,0.0529,0.0595,0.0724,0.0809,0.0904,0.1006,0.1059,0.1099,0.1114,0.1038,0.0908,0.0733,0.0495,0.0337,0.014,0.0015,-0.003,-0.0031,-0.0035,0.0013,-0.0012,-0.0004,-0.0074,-0.0074,-0.0074,-0.0074,0,0.0509,0.0545,0.0624,0.0739,0.0844,0.0934,0.0991,0.1026,0.1081,0.111,0.1059,0.0877,0.0781,0.053,0.0344,0.0195,0.015,0.0097,0.0088,0.0087,0.0157,0.0242,0.0199,0,0,0,0,0,0.0515,0.0549,0.0638,0.075,0.0846,0.0917,0.1028,0.1062,0.1122,0.1076,0.1097,0.0924,0.0675,0.0538,0.0392,0.0336,0.0124,0.0159,0.0059,-0.0076,-0.0076,-0.0019,0,0,0,0,0,0,0.0516,0.0578,0.0616,0.0734,0.0817,0.0914,0.0995,0.1029,0.1021,0.1053,0.0908,0.0877,0.0618,0.075,0.0378,0.0334,0.025,0.005,0.0047,-0.0076,-0.0076,-0.0075,-0.0017,0,0,0,0,0]}]]